This is the latest recevied weather packets stored in our database for station/object IW2NTF-3. If no packets are shown the sender has not sent any weather packets the latest 1 day(s).
| Time | Temp. | Humidity | Pressure | Rain* | Wind** | Luminosity | Snow |
|---|---|---|---|---|---|---|---|
| 1777981263 | 15.56° C | 82% | 1012.9 hPa | 0 mm | 1.79 m/s, 8° | 278 W/m² | - |
| 1777981203 | 15.56° C | 82% | 1012.9 hPa | 0 mm | 1.79 m/s, 7° | 285 W/m² | - |
| 1777981143 | 15.56° C | 82% | 1012.9 hPa | 0 mm | 1.79 m/s, 12° | 304 W/m² | - |
| 1777981083 | 15.56° C | 82% | 1012.8 hPa | 0 mm | 2.24 m/s, 8° | 269 W/m² | - |
| 1777981023 | 15° C | 82% | 1012.8 hPa | 0 mm | 2.24 m/s, 9° | 297 W/m² | - |
| 1777980963 | 15° C | 82% | 1012.9 hPa | 0 mm | 1.79 m/s, 10° | 362 W/m² | - |
| 1777980903 | 15° C | 82% | 1012.9 hPa | 0 mm | 1.79 m/s, 10° | 424 W/m² | - |
| 1777980843 | 15° C | 82% | 1012.9 hPa | 0 mm | 1.79 m/s, 10° | 404 W/m² | - |
| 1777980783 | 15° C | 83% | 1013 hPa | 0 mm | 1.79 m/s, 9° | 450 W/m² | - |
| 1777980723 | 15° C | 83% | 1013 hPa | 0 mm | 1.79 m/s, 6° | 373 W/m² | - |
| 1777980663 | 15° C | 83% | 1012.9 hPa | 0 mm | 2.24 m/s, 6° | 311 W/m² | - |
| 1777980603 | 15° C | 83% | 1012.9 hPa | 0 mm | 2.24 m/s, 5° | 257 W/m² | - |
| 1777980543 | 15° C | 83% | 1012.9 hPa | 0 mm | 2.24 m/s, 360° | 216 W/m² | - |
| 1777980483 | 15° C | 83% | 1012.9 hPa | 0 mm | 2.24 m/s, 358° | 193 W/m² | - |
| 1777980423 | 15° C | 83% | 1012.9 hPa | 0 mm | 2.24 m/s, 358° | 171 W/m² | - |
| 1777980363 | 15° C | 83% | 1013 hPa | 0 mm | 2.24 m/s, 360° | 172 W/m² | - |
| 1777980303 | 15° C | 83% | 1013 hPa | 0 mm | 2.24 m/s, 1° | 185 W/m² | - |
| 1777980244 | 15° C | 83% | 1013 hPa | 0 mm | 2.24 m/s, 3° | 202 W/m² | - |
| 1777980183 | 15° C | 83% | 1012.9 hPa | 0 mm | 2.24 m/s, 6° | 225 W/m² | - |
| 1777980123 | 15° C | 83% | 1012.9 hPa | 0 mm | 2.24 m/s, 6° | 241 W/m² | - |
| 1777980063 | 15° C | 83% | 1012.9 hPa | 0 mm | 2.24 m/s, 4° | 251 W/m² | - |
| 1777980003 | 15° C | 83% | 1012.9 hPa | 0 mm | 2.24 m/s, 3° | 251 W/m² | - |
| 1777979943 | 15° C | 83% | 1012.9 hPa | 0 mm | 2.24 m/s, 4° | 250 W/m² | - |
| 1777979883 | 15° C | 84% | 1012.9 hPa | 0 mm | 1.79 m/s, 7° | 260 W/m² | - |
| 1777979823 | 15° C | 84% | 1012.9 hPa | 0 mm | 1.79 m/s, 5° | 278 W/m² | - |
* Rain latest hour (hover to see other rain measurements)
** Current wind speed in m/s (hover to see current wind gust speed)